This is the latest recevied weather packets stored in our database for station/object PA1CG-7. If no packets are shown the sender has not sent any weather packets the latest 10 day(s).
| Time | Temp. | Humidity | Pressure | Rain* | Wind** | Luminosity | Snow |
|---|---|---|---|---|---|---|---|
| 1777763536 | 15° C | 90% | 1012.2 hPa | 0 mm | - | - | - |
| 1777762936 | 15° C | 90% | 1012.2 hPa | 0 mm | - | - | - |
| 1777762336 | 15° C | 90% | 1012.4 hPa | 0 mm | - | - | - |
| 1777761736 | 15° C | 90% | 1012.4 hPa | 0 mm | - | - | - |
| 1777761136 | 15° C | 89% | 1012.4 hPa | 0 mm | - | - | - |
| 1777760536 | 15° C | 89% | 1012.4 hPa | 0.25 mm | - | - | - |
| 1777759936 | 15° C | 89% | 1012.4 hPa | 0.51 mm | - | - | - |
| 1777759336 | 15° C | 88% | 1012.5 hPa | 0.76 mm | - | - | - |
| 1777758737 | 15° C | 87% | 1012.5 hPa | 1.27 mm | - | - | - |
| 1777758137 | 15° C | 87% | 1012.6 hPa | 2.03 mm | - | - | - |
| 1777757537 | 15.56° C | 86% | 1012.5 hPa | 2.29 mm | - | - | - |
| 1777756937 | 15.56° C | 85% | 1012.6 hPa | 2.29 mm | - | - | - |
| 1777756337 | 15.56° C | 84% | 1012.7 hPa | 1.78 mm | - | - | - |
| 1777755737 | 16.11° C | 80% | 1013.1 hPa | 1.52 mm | - | - | - |
| 1777755137 | 16.67° C | 76% | 1013.3 hPa | 1.27 mm | - | - | - |
| 1777754537 | 16.67° C | 71% | 1013.4 hPa | 0.51 mm | - | - | - |
| 1777753937 | 16.11° C | 66% | 1014.2 hPa | 0 mm | - | - | - |
| 1777753337 | 16.11° C | 65% | 1013.4 hPa | 0 mm | - | - | - |
| 1777752737 | 16.11° C | 65% | 1013.4 hPa | 0 mm | - | - | - |
| 1777752137 | 16.11° C | 64% | 1013.4 hPa | 0 mm | - | - | - |
| 1777751537 | 16.11° C | 64% | 1013.5 hPa | 0 mm | - | - | - |
| 1777750938 | 16.11° C | 63% | 1013.6 hPa | 0 mm | - | - | - |
| 1777750337 | 16.11° C | 62% | 1013.6 hPa | 0 mm | - | - | - |
| 1777749737 | 16.11° C | 61% | 1013.8 hPa | 0 mm | - | - | - |
| 1777749137 | 16.11° C | 61% | 1013.7 hPa | 0 mm | - | - | - |
* Rain latest hour (hover to see other rain measurements)
** Current wind speed in m/s (hover to see current wind gust speed)